www.pogodaiklimat.ru

Погода и климат >> Архив погоды >> Финляндия >> Остров Багаскар


ПОГОДА на Острове Багаскар

  • Прогноз погоды на Острове Багаскар
  • Монитор погоды на Острове Багаскар

АРХИВ ПОГОДЫ на Острове Багаскар

Время (UTC), дата Ветер
(напр.,м/с)
 
Видим.   Явления Облачность Т
(С)
Тd
(С)
f
(%)
Тe
(С)
Тes
(С)
Комфортность P
(гПа)
Po
(гПа)
Тmin
(С)
Tmax
(С)
R
(мм)
R24
(мм)
S
(см)
10 10.08 Ю 2 35 км ясно +20.9 +16.3 75 +25 +36 комфорт 1013.6 1012.4
11 10.08 ЮЗ 3 35 км ясно +20.5 +14.9 70 +24 +33 комфорт 1013.8 1012.6
12 10.08 ЮЗ 2-3
{4}
40 км ясно +20.5 +16.8 79 +24 +34 комфорт 1013.8 1012.6
13 10.08 Ю 1 45 км ясно +19.4 +16.6 84 +22 +32 комфорт 1013.2 1012.0
14 10.08 Ю 2 45 км ясно +19.8 +16.3 80 +23 +28 комфорт 1013.2 1012.0
15 10.08 ЮВ 2-3
{3}
50 км ясно +19.4 +15.6 79 +22 +25 комфорт 1012.8 1011.6
16 10.08 Ю 4 50 км 3/0
[]
+19.1 +16.1 83 +21 +21 комфорт 1012.6 1011.4
17 10.08 Ю 3-6
{6}
50 км 9/4 1000 м
[]
+19.0 +15.6 81 +21 +21 комфорт 1012.5 1011.3
18 10.08 ЮВ 5-7
{7}
50 км 9/1 1500 м
[]
+18.5 +16.4 88 +19 +19 1012.3 1011.1 +18.5 +21.2
19 10.08 Ю 4 50 км 9/9 2000 м
[]
+18.6 +15.3 81 +19 +19 1012.5 1011.3
20 10.08 Ю 3 50 км 10/10
[]
+18.4 +15.2 82 +19 +19 1012.3 1011.1
21 10.08 Ю 4-5
{5}
50 км 10/0
[]
+18.6 +15.5 82 +19 +19 1011.7 1010.5
22 10.08 Ю 4-5
{6}
45 км 10/10
[]
+18.3 +16.2 88 +19 +19 1011.4 1010.2
23 10.08 Ю 4-6
{6}
40 км 10/0
[]
+18.1 +16.3 89 +18 +18 1010.9 1009.8
00 11.08 Ю 5-6
{7}
40 км 10/10
[]
+17.7 +16.1 90 +17 +17 1010.6 1009.4
01 11.08 Ю 5-8
{8}
30 км 9/9
[]
+17.7 +16.0 90 +17 +17 1010.1 1008.9
02 11.08 Ю 7 30 км 10/10
[]
+17.7 +16.0 90 +17 +17 1009.4 1008.2
03 11.08 Ю 7-10
{10}
40 км 10/3 600 м
[]
+17.7 +15.8 89 +17 +17 1009.1 1007.9
04 11.08 Ю 7 35 км 9/9
[]
+17.7 +16.0 90 +17 +17 1008.8 1007.6
05 11.08 Ю 9-14
{14}
45 км слаб. дождь 9/5 300 м
[]
+17.4 +13.8 79 +16 +16 1008.9 1007.7
06 11.08 Ю 9-13
{14}
11 км слаб. дождь {осадки} 10/10 600 м
[]
+16.2 +14.3 89 +14 +14 1008.3 1007.1 +16.1 +18.6
07 11.08 Ю 8 15 км морось 10/10 600 м
[]
+16.2 +15.0 93 +15 +15 1008.0 1006.8
08 11.08 Ю 10-13
{14}
2600 м сильн. ливневой дождь 10/10 300 м
[]
+16.1 +15.4 96 +14 +14 1007.7 1006.5
09 11.08 Ю 9-13
{13}
20 км слаб. морось {дождь} 10/0 200 м
[]
+16.4 +15.8 96 +15 +15 1007.7 1006.5
10 11.08 Ю 8 15 км в посл. час дождь 9/9 100 м
[]
+16.8 +16.4 97 +15 +16 1007.7 1006.5
11 11.08 ЮЗ 9 15 км слаб. ливневой дождь 10/10 100 м
[]
+18.1 +17.3 95 +17 +17 1007.6 1006.4
12 11.08 ЮЗ 10-12
{12}
17 км {ливн. осадки, дождь} 9/9 200 м
[]
+19.1 +16.8 87 +20 +20 1007.8 1006.7
13 11.08 ЮЗ 9-11
{12}
17 км 3/3 200 м
[]
+20.4 +17.7 84 +23 +24 комфорт 1007.9 1006.7
14 11.08 ЮЗ 9 23 км 6/6
[]
+20.5 +17.0 80 +23 +23 комфорт 1008.1 1006.9
15 11.08 ЮЗ 7-9
{10}
23 км 8/0
[]
+19.7 +17.1 85 +22 +22 комфорт 1008.2 1007.0
16 11.08 З 10 20 км 9/6 300 м
[]
+18.6 +17.0 90 +18 +18 1008.0 1006.8
17 11.08 З 9 20 км 9/9 300 м
[]
+18.4 +17.0 92 +18 +18 1008.5 1007.3
18 11.08 ЮЗ 7-8
{11}
17 км слаб. ливневой дождь {морось} 9/1 300 м
[]
+18.1 +16.5 90 +18 +18 1008.8 1007.6 +16.0 +20.7
19 11.08 ЮЗ 7 21 км в посл. час дождь 10/10 2000 м
[]
+18.5 +16.1 86 +19 +19 1008.9 1007.7
20 11.08 ЮЗ 9 20 км ясно +18.3 +16.5 89 +18 +18 1009.1 1007.9
21 11.08 ЮЗ 8-11
{12}
16 км {ливн. осадки} ясно +18.2 +16.7 91 +18 +18 1009.1 1007.9
22 11.08 ЮЗ 9-14
{14}
15 км ясно +18.1 +16.6 91 +17 +17 1009.2 1008.0
23 11.08 ЮЗ 10 17 км 4/4
[]
+18.1 +16.6 91 +17 +17 1009.5 1008.3
00 12.08 ЮЗ 10-12
{12}
16 км {ливн. осадки, метель} ясно +18.0 +16.6 92 +17 +17 1009.6 1008.4
01 12.08 ЮЗ 9 14 км 3/3 200 м
[]
+17.8 +16.7 93 +17 +17 1009.6 1008.4
02 12.08 З 9 14 км 5/4 200 м
[]
+17.3 +16.6 96 +16 +16 1009.7 1008.5
03 12.08 З 9-11
{11}
28 км 9/0 300 м
[]
+17.8 +16.5 92 +17 +17 1009.9 1008.7
04 12.08 З 7-9
{11}
29 км в посл. час дождь 9/3 1000 м
[]
+17.9 +16.1 89 +17 +17 1010.2 1009.0
05 12.08 ЮЗ 7-8
{9}
23 км 9/9
[]
+18.1 +16.3 89 +18 +18 1010.4 1009.2
06 12.08 ЮЗ 9-11
{12}
23 км {ливн. осадки, дождь} 4/1 1500 м
[]
+18.3 +16.0 86 +18 +18 1010.5 1009.3 +17.3 +18.5
07 12.08 ЮЗ 10 17 км 9/5 1000 м
[]
+18.2 +16.3 89 +17 +17 1010.9 1009.7
08 12.08 ЮЗ 9 19 км 9/8 200 м
[]
+18.7 +16.7 88 +19 +19 1010.9 1009.7
09 12.08 ЮЗ 8-10
{12}
19 км 9/9 300 м
[]
+18.4 +16.5 89 +18 +18 1011.0 1009.8
10 12.08 ЮЗ 8-11
{11}
19 км 9/0
[]
+19.0 +16.4 85 +20 +21 1010.9 1009.7
11 12.08 ЮЗ 8-10
{12}
21 км 9/3 1000 м
[]
+19.0 +16.9 88 +20 +21 1010.8 1009.6
12 12.08 ЮЗ 9-11
{11}
22 км 9/9
[]
+18.7 +16.0 84 +19 +19 1010.9 1009.7
13 12.08 ЮЗ 8 24 км 1/1 2000 м
[]
+19.1 +16.0 82 +20 +21 1010.7 1009.5
14 12.08 ЮЗ 10 27 км 6/0
[]
+18.8 +16.1 84 +19 +19 1010.3 1009.1
15 12.08 ЮЗ 12-15
{17}
35 км 8/0
[]
+17.8 +14.2 79 +16 +16 1010.2 1009.0
16 12.08 ЮЗ 9 35 км 9/9
[]
+17.5 +14.5 83 +16 +16 1010.0 1008.8
17 12.08 ЮЗ 8-11
{12}
35 км 9/4 200 м
[]
+17.0 +14.8 87 +16 +16 1009.9 1008.7
18 12.08 ЮЗ 8-10
{11}
40 км 4/4 300 м
[]
+17.0 +14.9 87 +16 +16 1009.6 1008.4 +17.0 +19.4
19 12.08 ЮЗ 7-9
{10}
30 км 9/0 200 м
[]
+16.9 +15.5 91 +16 +16 1009.6 1008.4
20 12.08 ЮЗ 8-11
{11}
30 км 9/0 200 м
[]
+16.8 +15.1 90 +15 +15 1009.7 1008.5
21 12.08 ЮЗ 7-9
{11}
30 км 9/0 300 м
[]
+17.0 +15.0 88 +16 +16 1009.3 1008.1
22 12.08 ЮЗ 7 35 км 9/5 300 м
[]
+17.0 +15.2 89 +16 +16 1009.4 1008.2
23 12.08 ЮЗ 7 30 км 9/9 300 м
[]
+17.0 +15.1 89 +16 +16 1009.3 1008.0
00 13.08 ЮЗ 7-9
{10}
27 км 9/9 300 м
[]
+17.0 +15.5 91 +16 +16 1008.9 1007.7
01 13.08 ЮЗ 7-9
{9}
20 км 9/0 200 м
[]
+17.0 +15.5 91 +16 +16 1008.6 1007.3
02 13.08 ЮЗ 6 25 км 10/10 200 м
[]
+17.1 +15.9 93 +16 +16 1008.1 1006.9
03 13.08 ЮЗ 7-8
{8}
23 км 10/0 300 м
[]
+17.1 +15.6 91 +16 +16 1007.8 1006.7
04 13.08 ЮЗ 7 24 км 10/10 200 м
[]
+17.0 +15.4 90 +16 +16 1007.8 1006.7
05 13.08 ЮЗ 7-9
{9}
21 км 10/0 200 м
[]
+16.9 +15.5 91 +16 +16 1007.8 1006.6
06 13.08 ЮЗ 7-8
{9}
25 км 10/10 200 м
[]
+17.2 +15.9 92 +16 +16 1007.7 1006.5 +16.7 +17.2
07 13.08 ЮЗ 7 24 км 10/10 300 м
[]
+17.3 +15.3 88 +16 +16 1007.8 1006.6
08 13.08 З 7-8
{9}
29 км 10/0 300 м
[]
+17.7 +15.5 87 +17 +17 1007.8 1006.6
09 13.08 ЮЗ 7-8
{9}
30 км 10/0 300 м
[]
+17.4 +14.7 84 +16 +18 1007.5 1006.3
10 13.08 ЮЗ 6 30 км 10/10 300 м
[]
+18.5 +15.4 82 +19 +19 1007.3 1006.1
11 13.08 ЮЗ 7 27 км 10/10 300 м
[]
+18.5 +15.5 83 +19 +19 1007.0 1005.8
12 13.08 ЮЗ 7-8
{9}
30 км 9/9 300 м
[]
+19.1 +15.9 82 +20 +20 1007.1 1005.9
13 13.08 ЮЗ 8 35 км 3/3 200 м
[]
+20.8 +16.3 75 +24 +25 комфорт 1007.0 1005.8
14 13.08 З 8 40 км 1/1 200 м
[]
+20.6 +16.0 75 +23 +24 комфорт 1006.6 1005.4
15 13.08 З 10-12
{12}
40 км 1/0 300 м
[]
+18.7 +14.8 78 +19 +19 1006.6 1005.4
16 13.08 З 9 40 км ясно +19.3 +15.1 77 +20 +20 1006.7 1005.5
17 13.08 З 10 35 км 1/1 300 м
[]
+17.8 +14.4 80 +17 +17 1006.9 1005.7
18 13.08 З 9-11
{12}
45 км 3/3 300 м
[]
+17.3 +14.3 83 +16 +16 1006.9 1005.7 +17.1 +21.4
19 13.08 З 8 35 км 4/4 300 м
[]
+16.8 +14.8 88 +15 +15 1006.8 1005.6
20 13.08 З 10 35 км 4/4 300 м
[]
+16.6 +14.7 89 +15 +15 1006.8 1005.6
21 13.08 ЮЗ 9-10
{13}
27 км 5/4 300 м
[]
+17.0 +15.0 88 +16 +16 1007.0 1005.8
22 13.08 ЮЗ 9 29 км 9/4 300 м
[]
+17.0 +15.2 89 +16 +16 1006.8 1005.6
23 13.08 З 8 6000 м сильн. ливневой дождь 9/8 300 м
[]
+15.7 +14.5 93 +14 +14 1006.7 1005.5
00 14.08 ЮЗ 9-11
{11}
45 км {ливн. осадки, дождь} 9/4 300 м
[]
+17.0 +14.6 86 +16 +16 1006.2 1005.0
01 14.08 З 8 50 км 4/0
[]
+15.6 +13.3 86 +14 +14 1006.1 1004.9
02 14.08 ЮЗ 6-7
{9}
40 км 4/4 300 м
[]
+16.3 +14.4 89 +15 +15 1006.1 1004.9
03 14.08 ЮЗ 7-9
{10}
45 км 5/1 300 м
[]
+16.5 +14.0 85 +15 +15 1005.9 1004.7
04 14.08 ЮЗ 9 45 км в посл. час дождь 9/6 300 м
[]
+16.9 +14.7 87 +15 +15 1005.8 1004.7
05 14.08 З 12 12 км слаб. ливневой дождь 9/9 300 м
[]
+16.3 +14.6 90 +14 +14 1005.8 1004.6
06 14.08 З 4-6
{12}
40 км слаб. ливневой дождь 9/9 2000 м
[]
+15.3 +14.1 93 +14 +14 1006.1 1004.9 +14.4 +17.4
07 14.08 З 6-8
{8}
40 км 8/3 300 м
[]
+16.9 +14.4 85 +16 +17 1006.4 1005.2
08 14.08 З 8-9
{10}
45 км 5/5 300 м
[]
+17.7 +13.7 77 +17 +17 1007.0 1005.8
09 14.08 З 6-12
{12}
45 км {ливн. осадки} 9/6 600 м
[]
+18.5 +14.7 79 +19 +20 1006.9 1005.7
10 14.08 З 12 40 км 4/3 600 м
[]
+19.0 +13.4 70 +19 +19 1007.4 1006.2
11 14.08 З 11 8000 м ливневой дождь 9/9 600 м
[]
+16.1 +12.9 81 +14 +14 1007.7 1006.5
12 14.08 З 12-15
{15}
40 км {ливн. осадки, дождь} 3/3 600 м
[]
+18.2 +12.9 71 +17 +17 1007.5 1006.3
13 14.08 З 12 50 км 1/1 600 м
[]
+18.7 +13.2 70 +18 +18 1007.3 1006.1
14 14.08 З 11-14
{15}
35 км 3/0 1500 м
[]
+18.5 +12.7 69 +18 +18 1007.5 1006.3
15 14.08 З 12-15
{15}
35 км слаб. ливневой дождь 8/0 600 м
[]
+17.6 +12.5 72 +16 +16 1007.7 1006.5
16 14.08 З 12 29 км ясно +17.3 +11.3 68 +16 +16 1007.9 1006.7
17 14.08 З 11 50 км 1/1 600 м
[]
+16.4 +11.3 72 +14 +14 1008.1 1006.9
18 14.08 З 10-12
{14}
50 км {ливн. осадки, дождь} 1/1 1000 м
[]
+15.7 +11.3 75 +14 +14 1008.0 1006.8 +14.7 +19.5
19 14.08 З 10 50 км 1/1 600 м
[]
+15.6 +12.2 80 +13 +13 1007.5 1006.3
20 14.08 З 10 45 км 9/9 600 м
[]
+16.1 +12.5 79 +14 +14 1007.2 1006.0
21 14.08 З 9-11
{12}
50 км 1/0 600 м
[]
+15.9 +12.2 79 +14 +14 1007.1 1005.9
22 14.08 З 8 50 км 6/1 600 м
[]
+16.1 +12.6 80 +14 +14 1007.0 1005.8
23 14.08 ЮЗ 8-7
{14}
27 км слаб. ливневой дождь 9/4 600 м
[]
+15.8 +11.5 76 +14 +14 1006.7 1005.5
00 15.08 З 4-5
{23}
26 км в посл. час дождь {ливн. осадки} 9/4 2000 м
[]
+12.8 +12.0 95 +11 +11 1006.7 1005.5
01 15.08 З 6 30 км 9/9
[]
+14.2 +13.4 95 +12 +12 1006.6 1005.4
02 15.08 З 8-9
{10}
50 км ясно +14.2 +12.5 90 +12 +12 1006.3 1005.1
03 15.08 З 7-9
{12}
50 км слаб. ливневой дождь 6/1 1500 м
[]
+14.5 +11.5 82 +12 +12 1006.4 1005.2
04 15.08 СЗ 4-5
{8}
50 км слаб. ливневой дождь 9/1 1000 м
[]
+14.3 +11.4 83 +13 +13 1006.6 1005.4
05 15.08 СЗ 4 45 км слаб. ливневой дождь 9/1 1000 м
[]
+14.9 +12.0 83 +14 +14 1006.7 1005.5
06 15.08 З 5-7
{7}
50 км {ливн. осадки, дождь} 9/8 600 м
[]
+15.4 +11.2 76 +14 +14 1007.1 1005.9 +12.6 +16.2
07 15.08 З 5 50 км 9/9 1000 м
[]
+16.4 +11.6 73 +15 +16 1007.3 1006.1
08 15.08 З 6 50 км 9/9 600 м
[]
+15.9 +11.1 73 +15 +15 1007.6 1006.4
09 15.08 З 6-9
{9}
50 км 1/0 600 м
[]
+18.1 +11.2 64 +18 +21 1008.0 1006.8
10 15.08 З 7 50 км 9/9 1000 м
[]
+17.6 +10.5 63 +17 +17 1008.3 1007.1
11 15.08 З 7-9
{10}
50 км 4/4 1000 м
[]
+19.6 +11.7 60 +20 +22 1008.6 1007.4
12 15.08 З 8-10
{11}
9000 м дождь 5/5 1000 м
[]
+17.5 +13.1 75 +16 +17 1009.1 1007.9
13 15.08 СЗ 8 50 км в посл. час дождь 1/1 1000 м
[]
+19.2 +9.9 55 +19 +21 1009.3 1008.1
14 15.08 З 8-15
{15}
40 км 3/0 1000 м
[]
+18.4 +10.1 58 +18 +18 1009.7 1008.5
15 15.08 З 10-14
{15}
50 км {ливн. осадки, дождь} ясно +17.6 +12.0 70 +16 +16 1010.1 1008.9
16 15.08 З 11 50 км 1/1 1000 м
[]
+17.3 +12.5 73 +16 +16 1010.4 1009.2
17 15.08 З 10-12
{13}
50 км ясно +16.3 +12.5 78 +14 +14 1010.8 1009.6
18 15.08 З 7-9
{12}
50 км {ливн. осадки, дождь} ясно +16.2 +11.0 71 +15 +15 1011.4 1010.2 +15.3 +19.9
19 15.08 З 7-9
{9}
50 км ясно +15.5 +11.8 79 +14 +14 1011.9 1010.7
20 15.08 З 6-8
{9}
35 км ясно +15.1 +12.0 82 +13 +13 1012.3 1011.1
21 15.08 З 5-6
{8}
50 км ясно +14.7 +12.9 89 +13 +13 1012.7 1011.5
22 15.08 ЮЗ 5 50 км ясно +14.2 +12.4 89 +12 +12 1012.8 1011.6
23 15.08 З 6 50 км ясно +14.7 +12.6 87 +13 +13 1013.0 1011.8
00 16.08 З 6-8
{8}
50 км ясно +14.7 +12.6 87 +13 +13 1013.1 1011.8
01 16.08 З 5 50 км ясно +14.6 +12.7 88 +13 +13 1013.1 1011.9
02 16.08 З 6-6
{7}
50 км ясно +14.4 +12.9 91 +12 +12 1013.2 1012.0
03 16.08 З 5-6
{7}
45 км ясно +14.4 +13.2 92 +13 +13 1013.4 1012.2
04 16.08 ЮЗ 5 50 км ясно +15.5 +13.5 88 +14 +14 1013.6 1012.4
05 16.08 ЮЗ 5-7
{7}
50 км 6/0
[]
+16.5 +13.0 80 +16 +16 1013.7 1012.5
06 16.08 ЮЗ 5-6
{8}
50 км 10/10
[]
+16.6 +14.0 85 +16 +16 1014.2 1013.0 +14.2 +16.7
07 16.08 ЮЗ 5 45 км 10/10
[]
+16.7 +14.3 86 +16 +16 1014.4 1013.2
08 16.08 ЮЗ 6 45 км 10/10
[]
+17.2 +14.8 86 +16 +16 1014.6 1013.3
09 16.08 ЮЗ 5-6
{7}
45 км 9/9
[]
+17.3 +14.3 83 +17 +17 1014.8 1013.5
10 16.08 ЮЗ 5-7
{7}
40 км 9/0
[]
+17.6 +15.0 85 +17 +18 1014.9 1013.7
11 16.08 ЮЗ 6 40 км 9/9
[]
+17.7 +14.5 82 +17 +17 1015.0 1013.8
12 16.08 ЮЗ 6-7
{8}
50 км 9/9 2000 м
[]
+17.7 +14.5 82 +17 +17 1015.2 1014.0
13 16.08 ЮЗ 6 50 км 9/9
[]
+18.1 +14.7 81 +18 +18 1015.1 1013.9
14 16.08 З 4 50 км 10/10 2000 м
[]
+17.9 +14.6 81 +18 +18 1015.0 1013.8
15 16.08 З 3-3
{5}
50 км 10/10
[]
+17.9 +14.2 79 +18 +18 1014.8 1013.6
16 16.08 Ю 2 50 км 10/10
[]
+17.5 +14.8 84 +18 +18 1014.7 1013.5
17 16.08 ЮВ 4-5
{5}
50 км 10/10
[]
+17.2 +15.3 89 +17 +17 1014.6 1013.4
18 16.08 ЮВ 6-7
{7}
25 км слаб. дождь 10/10
[]
+16.6 +15.1 91 +15 +15 1014.6 1013.3 +16.5 +18.3
19 16.08 ЮВ 6 24 км в посл. час дождь 9/9
[]
+16.3 +15.4 94 +15 +15 1014.5 1013.3
20 16.08 ЮВ 6-7
{8}
35 км 10/0
[]
+16.3 +15.1 93 +15 +15 1014.4 1013.2
21 16.08 ЮВ 6-7
{7}
25 км {ливн. осадки, дождь} 10/10 2000 м
[]
+16.5 +15.3 93 +15 +15 1014.3 1013.1
22 16.08 Ю 7 45 км 10/10
[]
+16.6 +14.1 85 +15 +15 1014.2 1013.0
23 16.08 Ю 7 50 км 10/10
[]
+16.6 +13.7 83 +15 +15 1014.1 1012.9
00 17.08 Ю 7-8
{9}
45 км {ливн. осадки, дождь} 9/9
[]
+16.5 +14.1 86 +15 +15 1013.8 1012.6
01 17.08 Ю 7 50 км 9/9
[]
+16.6 +13.9 84 +15 +15 1013.7 1012.5
02 17.08 Ю 6-9
{9}
50 км 10/0
[]
+17.1 +13.9 81 +16 +16 1013.6 1012.4
03 17.08 ЮЗ 6-8
{10}
50 км 9/9 2000 м
[]
+16.5 +14.2 86 +15 +15 1013.7 1012.5
04 17.08 ЮЗ 7 50 км 5/5 300 м
[]
+16.6 +14.6 88 +15 +15 1013.9 1012.7
05 17.08 ЮЗ 5 30 км 1/1 200 м
[]
+16.3 +15.1 93 +15 +16 1014.0 1012.8
06 17.08 Ю 5-7
{8}
40 км ясно +16.8 +15.0 89 +16 +18 1014.1 1012.9 +16.1 +17.1
07 17.08 Ю 4-6
{7}
35 км 1/0 200 м
[]
+17.3 +15.4 89 +17 +20 1014.2 1013.0
08 17.08 ЮЗ 4 30 км 3/3 100 м
[]
+17.3 +15.4 89 +17 +21 1014.5 1013.3
09 17.08 ЮЗ 4-5
{7}
40 км 9/0
[]
+17.9 +15.2 84 +18 +21 1014.8 1013.6
10 17.08 ЮЗ 4 35 км 6/6
[]
+18.1 +15.5 85 +18 +21 1015.0 1013.8

 

Местоположение метеостанции Остров Багаскар (Финляндия): широта 59.93 долгота 24.01 высота над уровнем моря 12 м.

В архиве по умолчанию представлена погода на Острове Багаскар за последнюю неделю. Архивные данные за месяц целиком и за предыдущие месяцы, начиная с января 2011 года, Вы можете получить, выбрав интересующий диапазон дат из раскрывающегося списка и нажав кнопку "Ввод!".


*Определитесь, кто Вы:
робот инопланетянин человек

Внимание! Время в таблицах - всемирное. Для получения местного времени необходимо прибавить поправку, которая равна 1 ч.

Смотрите также архив погоды в соседних городах и на ближайших метеорологических станциях:

Погода на Острове Мякилюото (Финляндия) (19 км)
Погода на Юссаро (Финляндия) (27 км)
Погода в Лохья Порла (Финляндия) (35 км)
Погода в Твярминне (Финляндия) (44 км)
Погода в Эспо Нууксио (Финляндия) (51 км)
Погода на Хельсинском маяке (Финляндия) (51 км)
Погода в Эспо Тапиола (Финляндия) (51 км)
Погода на Острове Хармая (Финляндия) (57 км)
Погода в Вихти (Финляндия) (59 км)
Погода в Хельсинки Кайсаниеми (Финляндия) (59 км)

Пояснения к столбцам:

Ветер - указаны скорость ветра в м/с - средняя за 10 мин, порывы в срок и между сроками (в фигурных скобках) и направление, откуда дует ветер: С - северный, СВ - северо-восточный, В - восточный, ЮВ - юго-восточный, Ю - южный, ЮЗ - юго-западный, З - западный, СЗ - северо-западный.
Видимость - горизонтальная дальность видимости в метрах или километрах. При видимости от 1 до 10 км при отсутствии осадков обычно наблюдается дымка, при ухудшении видимости до 1 км и менее - туман. В сухую погоду видимость может ухудшаться дымом, пылью или мглою.
Явления - указаны атмосферные явления, наблюдавшиеся в срок или в последний час перед сроком; фигурными скобками обозначены явления, наблюдавшиеся между сроками (за 1-3 часа до срока); квадратными скобками обозначены град или гололедные отложения с указанием их диаметра в мм.
Облачность - указаны через наклонную черту общая и нижняя облачность в баллах и высота нижней границы облаков в метрах; квадратными скобками обозначены формы облаков: Ci - перистые, Cs - перисто-слоистые, Cc - перисто-кучевые, Ac - высококучевые, As - высокослоистые, Sc - слоисто-кучевые, Ns - слоисто-дождевые, Cu - кучевые, Cb - кучево-дождевые. Подробнее классификацию облаков см. в Атласе облаков (PDF).
T - Температура воздуха - температура, измеренная на высоте 2 м над землей.
Td - Температура точки росы - температура, при понижении до которой содержащийся в воздухе водяной пар достигнет насыщения.
f - Относительная влажность воздуха - влажноcть воздуха, измеренная на высоте 2 м над землей.
Te - Эффективная температура - температура, которую ощущает одетый по сезону человек в тени. Характеристика душности погоды. При расчете учитывается влияние влажности воздуха и скорости ветра на теплоощущения человека.
Tes - Эффективная температура на солнце - температура, которую ощущает человек, с поправкой на солнечный нагрев. Характеристика знойности погоды. Зависит от высоты солнца над горизонтом, облачности и скорости ветра. Ночью, в пасмурную погоду, а также при ветре 12 м/с и более поправка равна нулю.
P - Атмосферное давление - приведенное к уровню моря атмосферное давление.
Po - Атмосферное давление - измеренное на уровне метеостанции атмосферное давление.
Tmin - Минимальная температура - минимум температуры воздуха на высоте 2 м над землей.
Tmax - Максимальная температура - максимум температуры воздуха на высоте 2 м над землей.
R - Количество осадков - Количество выпавших осадков за период времени, мм. При наведении курсора мыши на число - период времени, за который выпало указанное количество осадков.
R24 - Количество осадков - Количество выпавших осадков за 24 часа, мм.
S - Снежный покров - Высота снежного покрова, см. При наведении курсора мыши на число - состояние снежного покрова и степень покрытия местности в баллах.